Chapel Hill, NC

4:47 PM EDT on August 28, 2016 (GMT -0400)
Williams

Weather History for KIGX - November, 2013

Change the Weather History Date:

Tuesday, November 5, 2013

  Actual Average Record
Temperature  
Mean Temperature 46 °F -  
Max Temperature 55 °F 65 °F 83 °F (1948)
Min Temperature 37 °F 41 °F 24 °F (2006)
Degree Days  
Heating Degree Days 19    
Moisture  
Dew Point 39 °F    
Average Humidity 71    
Maximum Humidity 80    
Minimum Humidity 57    
Precipitation  
Precipitation 0.00 in - - ()
Sea Level Pressure  
Sea Level Pressure 30.50 in    
Wind  
Wind Speed 5 mph (NNE)    
Max Wind Speed 8 mph    
Max Gust Speed -    
Visibility 10 miles    
Events      
Averages and records for this station are not official NWS values.
T = Trace of Precipitation, MM = Missing Value Source: NWS Daily Summary

Daily Weather History Graph

Daily Weather History Graph

Search for Another Location

Airport or City:

Trip Planner

Search our weather history database for the weather conditions in past years. The results will help you decide how hot, cold, wet, or windy it might be!

Date:

Astronomy

Nov. 05, 2013 Rise Set
Actual Time 6:42 AM EST 5:16 PM EST
Civil Twilight 6:16 AM EST 5:43 PM EST
Nautical Twilight 5:45 AM EST 6:13 PM EST
Astronomical Twilight 5:15 AM EST 6:43 PM EST
Moon 8:53 AM EST (11/5) 7:18 PM EST (11/5)
Length of Visible Light 11h 27m
Length of Day
10h 33m
Waxing Crescent, 6% of the Moon is Illuminated
Nov 5
Waxing Crescent
Nov 10
First Quarter
Nov 17
Full
Nov 25
Last Quarter
Dec 2
New

Hourly Weather History & Observations

Time (EST) Temp. Windchill Dew Point Humidity Pressure Visibility Wind Dir Wind Speed Gust Speed Precip Events Conditions
12:56 AM 39.9 °F 34.5 °F 30.9 °F 70% 30.53 in 10.0 mi NNE 8.1 mph - N/A   Clear
1:56 AM 39.0 °F - 30.9 °F 73% 30.54 in 10.0 mi Calm Calm - N/A   Clear
2:56 AM 37.9 °F 35.5 °F 30.9 °F 76% 30.53 in 10.0 mi Variable 3.5 mph - N/A   Clear
3:56 AM 37.9 °F 34.4 °F 30.9 °F 76% 30.52 in 10.0 mi North 4.6 mph - N/A   Clear
4:56 AM 37.9 °F 34.4 °F 32.0 °F 79% 30.53 in 10.0 mi Variable 4.6 mph - N/A   Scattered Clouds
5:17 AM 39.0 °F 34.8 °F 32.0 °F 76% 30.53 in 10.0 mi NNW 5.8 mph - N/A   Overcast
5:35 AM 39.9 °F 35.8 °F 32.0 °F 73% 30.53 in 10.0 mi Variable 5.8 mph - N/A   Overcast
5:56 AM 39.9 °F 36.7 °F 32.0 °F 73% 30.54 in 10.0 mi NNW 4.6 mph - N/A   Mostly Cloudy
6:56 AM 41.0 °F 39.0 °F 33.1 °F 73% 30.54 in 10.0 mi Variable 3.5 mph - N/A   Mostly Cloudy
7:56 AM 42.1 °F 39.2 °F 33.1 °F 70% 30.54 in 10.0 mi North 4.6 mph - N/A   Scattered Clouds
8:56 AM 45.0 °F 43.5 °F 35.1 °F 68% 30.55 in 10.0 mi Variable 3.5 mph - N/A   Mostly Cloudy
9:56 AM 46.9 °F - 36.0 °F 66% 30.56 in 10.0 mi NNW 5.8 mph - N/A   Mostly Cloudy
10:56 AM 51.1 °F - 37.9 °F 61% 30.56 in 10.0 mi Variable 4.6 mph - N/A   Overcast
11:56 AM 53.1 °F - 39.0 °F 59% 30.53 in 10.0 mi Variable 6.9 mph - N/A   Overcast
12:56 PM 55.0 °F - 39.9 °F 57% 30.50 in 10.0 mi NE 6.9 mph - N/A   Overcast
1:56 PM 55.9 °F - 42.1 °F 60% 30.48 in 10.0 mi NNE 6.9 mph - N/A   Mostly Cloudy
2:56 PM 55.9 °F - 43.0 °F 62% 30.46 in 10.0 mi NE 8.1 mph - N/A   Overcast
3:34 PM 55.9 °F - 44.1 °F 64% 30.47 in 9.0 mi North 6.9 mph - N/A   Overcast
3:41 PM 54.0 °F - 45.0 °F 72% 30.47 in 7.0 mi NNE 6.9 mph - N/A   Overcast
3:56 PM 54.0 °F - 45.0 °F 72% 30.48 in 10.0 mi North 3.5 mph - N/A   Overcast
4:56 PM 54.0 °F - 46.0 °F 75% 30.46 in 10.0 mi North 3.5 mph - N/A   Overcast
5:56 PM 54.0 °F - 46.9 °F 77% 30.47 in 10.0 mi Calm Calm - N/A   Overcast
6:56 PM 54.0 °F - 46.9 °F 77% 30.47 in 10.0 mi NNE 3.5 mph - N/A   Overcast
7:56 PM 55.0 °F - 46.0 °F 72% 30.47 in 10.0 mi NNE 3.5 mph - N/A   Overcast
8:56 PM 53.1 °F - 46.0 °F 77% 30.46 in 10.0 mi Calm Calm - N/A   Overcast
9:56 PM 54.0 °F - 46.0 °F 75% 30.45 in 10.0 mi NNE 4.6 mph - N/A   Overcast
10:56 PM 54.0 °F - 46.9 °F 77% 30.45 in 10.0 mi NE 6.9 mph - N/A   Overcast
11:56 PM 53.1 °F - 46.9 °F 80% 30.44 in 10.0 mi Calm Calm - N/A   Partly Cloudy